星链-36634(STARLINK-36634)

导读 | 豆包AI

STARLINK-36634是美国星链互联网卫星项目中的一颗卫星,于2026年1月29日发射升空。星链项目旨在通过低轨卫星星座,为全球提供覆盖广泛、高速稳定的互联网接入服务,这颗卫星加入星座后将进一步提升星链系统的服务覆盖能力与网络容量,推进项目组网建设进程。

基本信息
目录编号:
67593
目录名称:
STARLINK-36634
国际标识:
2026-018E
轨道中心:
EARTH
卫星名称:
星链-36634
卫星全名:
星链-36634(STARLINK-36634)
卫星状态:
在轨 (已飞行65 天)
发射日期:
2026-01-29 UTC
国别 :
美国 (US)
星等 :
--
轨道信息
数据来源 国际轨道数据
星历时间: 2026-04-04T01:19:57+0800
6小时前
查看轨道信息
半长轴: 6843.73km
偏心率: 0.0001846
轨道倾角: 97.284°
近地点辐角 82.609°
升交点赤经 159.625°
平近点角 277.536°
近地点: 464.329km
远地点: 466.857km
周期: 93.907分钟
每日圈数: 15.334284
详细信息
固有亮度:
5
最大亮度:
2.5
卫星平台:
Starlink V1.0
覆盖范围:
全球
运营商:
太空探索技术公司
运营商所在国:
美国
制造商(研发单位):
太空探索技术公司
制造商所在国:
美国
使用方式:
暂无
卫星简介
Starlink 计划是 SpaceX 推出的全球卫星互联网项目,通过发射低轨道卫星,为全球尤其是偏远地区提供高速、低延迟的互联网服务。自 2019 年起,Starlink 已部署数千颗卫星,旨在缩小全球数字鸿沟,推动互联网普及。该项目还为军事、航空等行业提供通信支持,带来广泛经济效益。
2D轨道图
3D轨道图
轨道高度分析图
轨道倾角分析图
轨道综合分析图
查看轨道综合分析图